Location: Shannon
(40.5500°S, 175.4167°E)
Time: 08:46:01
(UTC+00:00)

Cosmos 2227 Rocket - Pass Details

Date: 17 November 2025
Orbit: 839 x 842 km, 71.0° (Epoch: 14 December)

Event Time Altitude Azimuth Distance (km) Brightness Sun altitude
Exits shadow 13:23:16 70° 59° (ENE) 906 2.2 -27.5°
Maximum altitude 13:23:24 70° 70° (ENE) 904 2.2 -27.5°
Drops below altitude 10° 13:29:06 10° 152° (SSE) 2,492 5.6 -27.1°
Sets 13:31:34 0° 154° (SSE) 3,434 6.7 -26.9°
